Hourly Weather Roundup
Issued by NWS Central Illinois

Home | Current Version | Previous Version | Text Only | Print | Product List | Glossary On
Versions: 1 2 3 4 5 6 7 8 9 10 11 12 13 14 15 16 17 18 19 20 21 22 23 24 25 26 27 28 29 30 31 32 33 34 35 36 37 38 39 40 41 42 43 44 45 46 47 48 49 50
000
NZUS43 KILX 031810
HWRILX

AREA WEATHER ROUNDUP
NATIONAL WEATHER SERVICE, LINCOLN IL
100 PM CDT FRI JUL 03 2015


CITY           SKY/WX    TMP DP  RH WIND       PRES   REMARKS
BLOOMINGTON    MOSUNNY   75  64  68 NE10      29.97S
6HR MIN TEMP:  60; 6HR MAX TEMP:  75; 6HR PCP: TRACE;

CHAMPAIGN      CLOUDY    75  65  70 NE7       29.93F
6HR MIN TEMP:  65; 6HR MAX TEMP:  75;

DANVILLE       CLOUDY    73  65  75 NE7       29.91S
6HR MIN TEMP:  62; 6HR MAX TEMP:  74;

DECATUR        CLOUDY    76  67  73 NE7       29.93F
6HR MIN TEMP:  63; 6HR MAX TEMP:  77;

EFFINGHAM      PTSUNNY   78  64  63 N6        29.92F
FLORA          PTSUNNY   77  67  73 N5        29.89F
6HR MIN TEMP:  68; 6HR MAX TEMP:  78;

GALESBURG      PTSUNNY   75  60  60 NE5       29.97S
JACKSONVILLE   MOSUNNY   76  66  71 N3        29.94F
6HR MIN TEMP:  64; 6HR MAX TEMP:  76;

LACON          MOSUNNY   77  58  52 NE6       29.95S
6HR MIN TEMP:  59; 6HR MAX TEMP:  77;

LAWRENCEVILLE  PTSUNNY   77  70  79 N6        29.88F
6HR MIN TEMP:  71; 6HR MAX TEMP:  77; 6HR PCP:  0.01;

LITCHFIELD     PTSUNNY   74  65  73 N8        29.93S
$$


CITY           SKY/WX    TMP DP  RH WIND       PRES   REMARKS
LINCOLN        PTSUNNY   75  65  70 N3        29.94F
6HR MIN TEMP:  63; 6HR MAX TEMP:  75;

MACOMB         MOSUNNY   75  62  64 NE6       29.98S
MATTOON        CLOUDY    75  67  76 N7        29.91F
6HR MIN TEMP:  64; 6HR MAX TEMP:  77;

MT CARMEL AP   PTSUNNY   79  68  69 N5        29.87F HX  81
OLNEY-NOBLE AP PTSUNNY   77  70  78 N8        29.89F
PARIS          MOSUNNY   76  67  74 N7        29.92F
6HR MIN TEMP:  65; 6HR MAX TEMP:  76;

PEORIA         PTSUNNY   78  62  57 E7        29.95F HX  80
6HR MIN TEMP:  63; 6HR MAX TEMP:  79;

PONTIAC        MOSUNNY   78  63  59 E5        29.97S
RANTOUL        CLOUDY    76  64  67 NE6       29.94S
6HR MIN TEMP:  64; 6HR MAX TEMP:  76;

ROBINSON       PTSUNNY   75  67  76 NE3       29.90F
6HR MIN TEMP:  69; 6HR MAX TEMP:  75;

SPRINGFIELD    PTSUNNY   73  64  73 N7        29.95S
6HR MIN TEMP:  64; 6HR MAX TEMP:  73;

TAYLORVILLE    CLOUDY    72  64  78 N6        29.94S
$$

...REGIONAL REPORTS...


CITY           SKY/WX    TMP DP  RH WIND       PRES   REMARKS
CHICAGO O`HARE CLOUDY    75  54  47 E5        29.97S
KANKAKEE       PTSUNNY   74  58  57 E7        29.96S
MOLINE         MOSUNNY   76  58  53 NE7       29.98R
MOUNT STERLING NOT AVBL
MOUNT VERNON   PTSUNNY   79  66  65 CALM      29.89F HX  81
PITTSFIELD     SUNNY     76  61  58 NE7       29.96S
QUINCY         SUNNY     76  58  53 N9        29.96S
ROCKFORD       PTSUNNY   76  56  49 CALM      29.99S
$$


CITY           SKY/WX    TMP DP  RH WIND       PRES   REMARKS
BURLINGTON     MOSUNNY   76  61  59 NE6       29.97S
CEDAR RAPIDS   SUNNY     73  56  54 VRB3      29.99S
DES MOINES     MOSUNNY   76  53  44 N9        30.00F
KIRKSVILLE     MOSUNNY   76  57  51 NE8       30.00R
OTTUMWA        SUNNY     74  57  55 VRB5      29.98S
ST LOUIS       PTSUNNY   80  66  62 N8        29.93S HX  82
$$


CITY           SKY/WX    TMP DP  RH WIND       PRES   REMARKS
TERRE HAUTE    PTSUNNY   77  67  71 E8        29.89F
EVANSVILLE     HVY RAIN  72  68  87 CALM      29.87F FOG
INDIANAPOLIS   CLOUDY    73  62  68 N10       29.90S
LAFAYETTE      CLOUDY    72  61  68 N7        29.94S
MADISON        MOSUNNY   72  49  44 VRB7      29.97F
MILWAUKEE      PTSUNNY   73  52  47 SE8       29.98F
$$





USA.gov is the U.S. government's official web portal to all federal, state and local government web resources and services.